| time (UTC) | temp F | wind direction | speed MPH | gust MPH | rain 1hr in | rain 24hr in | rain mn in | humidity % | barometer mb |
| 20260506034545 | 57 | 186 | 3.0 | 5.0 | 0.00 | 0.30 | 0.20 | 64 | 1014.5 |
| 20260506033043 | 58 | 178 | 3.0 | 9.0 | 0.00 | 0.30 | 0.20 | 59 | 1014.3 |
| 20260506031539 | 60 | 235 | 3.0 | 10.0 | 0.00 | 0.30 | 0.20 | 57 | 1013.8 |
| 20260506030046 | 60 | 0 | 1.0 | 6.0 | 0.00 | 0.30 | 0.20 | 54 | 1013.7 |
| 20260506024549 | 59 | 261 | 1.0 | 6.0 | 0.00 | 0.31 | 0.20 | 58 | 1013.6 |
| 20260506023059 | 60 | 0 | 0.0 | 4.0 | 0.00 | 0.31 | 0.20 | 59 | 1013.3 |
| 20260506021553 | 62 | 186 | 3.0 | 5.0 | 0.00 | 0.31 | 0.20 | 56 | 1013.1 |
| 20260506020041 | 63 | 165 | 2.0 | 5.0 | 0.00 | 0.31 | 0.20 | 50 | 1013.1 |
| 20260506014547 | 64 | 183 | 2.0 | 6.0 | 0.00 | 0.32 | 0.20 | 48 | 1013.0 |
| 20260506013043 | 64 | 161 | 3.0 | 7.0 | 0.00 | 0.32 | 0.20 | 48 | 1013.1 |
| 20260506011544 | 64 | 180 | 3.0 | 8.0 | 0.00 | 0.32 | 0.20 | 50 | 1013.1 |
| 20260506010049 | 64 | 177 | 2.0 | 6.0 | 0.00 | 0.32 | 0.20 | 48 | 1013.1 |
| 20260506004548 | 64 | 197 | 3.0 | 7.0 | 0.00 | 0.32 | 0.20 | 48 | 1013.2 |
| 20260506003045 | 64 | 223 | 3.0 | 7.0 | 0.00 | 0.32 | 0.20 | 48 | 1013.1 |
| 20260506001547 | 64 | 165 | 3.0 | 9.0 | 0.00 | 0.32 | 0.20 | 48 | 1013.3 |
| 20260506000041 | 64 | 168 | 2.0 | 8.0 | 0.00 | 0.32 | 0.20 | 50 | 1013.1 |
| 20260505234559 | 64 | 140 | 4.0 | 9.0 | 0.00 | 0.32 | 0.20 | 49 | 1013.1 |
| 20260505233043 | 64 | 155 | 2.0 | 7.0 | 0.00 | 0.32 | 0.20 | 50 | 1013.2 |
| 20260505231544 | 63 | 197 | 2.0 | 6.0 | 0.00 | 0.32 | 0.20 | 52 | 1013.4 |
| 20260505230041 | 63 | 206 | 0.0 | 5.0 | 0.00 | 0.32 | 0.20 | 52 | 1013.6 |
| 20260505224541 | 62 | 248 | 3.0 | 8.0 | 0.00 | 0.32 | 0.20 | 53 | 1013.8 |
| 20260505223041 | 62 | 246 | 2.0 | 9.0 | 0.00 | 0.32 | 0.20 | 54 | 1013.8 |
| 20260505221546 | 62 | 34 | 3.0 | 8.0 | 0.00 | 0.32 | 0.20 | 54 | 1013.9 |
| 20260505220048 | 60 | 144 | 1.0 | 9.0 | 0.00 | 0.32 | 0.20 | 57 | 1014.0 |
| 20260505214603 | 59 | 0 | 2.0 | 8.0 | 0.00 | 0.32 | 0.20 | 61 | 1014.2 |
| 20260505213051 | 58 | 219 | 3.0 | 7.0 | 0.00 | 0.32 | 0.20 | 63 | 1014.3 |
| 20260505211539 | 58 | 217 | 4.0 | 8.0 | 0.00 | 0.32 | 0.20 | 63 | 1014.6 |
| 20260505210054 | 58 | 338 | 3.0 | 8.0 | 0.00 | 0.32 | 0.20 | 64 | 1014.6 |
| 20260505204555 | 57 | 185 | 3.0 | 9.0 | 0.00 | 0.32 | 0.20 | 70 | 1014.6 |
| 20260505203050 | 56 | 141 | 2.0 | 7.0 | 0.00 | 0.32 | 0.20 | 71 | 1014.7 |
| 20260505201541 | 55 | 143 | 1.0 | 6.0 | 0.00 | 0.32 | 0.20 | 71 | 1014.8 |
| 20260505200100 | 54 | 86 | 1.0 | 7.0 | 0.00 | 0.32 | 0.20 | 70 | 1015.0 |
| 20260505194548 | 53 | 0 | 2.0 | 6.0 | 0.00 | 0.32 | 0.20 | 73 | 1015.1 |
| 20260505193050 | 52 | 146 | 2.0 | 8.0 | 0.00 | 0.32 | 0.20 | 74 | 1015.1 |
| 20260505191544 | 51 | 0 | 2.0 | 7.0 | 0.00 | 0.32 | 0.20 | 74 | 1015.1 |
| 20260505190043 | 50 | 165 | 4.0 | 9.0 | 0.00 | 0.32 | 0.20 | 73 | 1015.0 |
| 20260505184539 | 49 | 0 | 3.0 | 7.0 | 0.00 | 0.32 | 0.20 | 75 | 1015.0 |
| 20260505183046 | 48 | 0 | 0.0 | 4.0 | 0.00 | 0.32 | 0.20 | 79 | 1015.0 |
| 20260505181544 | 48 | 0 | 0.0 | 0.0 | 0.00 | 0.32 | 0.20 | 78 | 1015.0 |
| 20260505180103 | 48 | 0 | 0.0 | 0.0 | 0.00 | 0.32 | 0.20 | 77 | 1014.8 |
| 20260505174559 | 47 | 0 | 0.0 | 0.0 | 0.00 | 0.32 | 0.20 | 80 | 1014.5 |
| 20260505173044 | 47 | 0 | 0.0 | 0.0 | 0.00 | 0.32 | 0.20 | 80 | 1014.3 |
| 20260505171543 | 46 | 0 | 1.0 | 3.0 | 0.00 | 0.32 | 0.20 | 82 | 1014.1 |
| 20260505170038 | 46 | 0 | 0.0 | 4.0 | 0.00 | 0.32 | 0.20 | 84 | 1014.0 |
| 20260505164549 | 46 | 133 | 0.0 | 4.0 | 0.00 | 0.32 | 0.20 | 84 | 1014.0 |
| 20260505163040 | 45 | 92 | 0.0 | 2.0 | 0.00 | 0.32 | 0.20 | 84 | 1013.8 |
| 20260505161540 | 45 | 0 | 0.0 | 2.0 | 0.00 | 0.32 | 0.20 | 87 | 1013.7 |
| 20260505153045 | 44 | 160 | 2.0 | 5.0 | 0.00 | 0.32 | 0.20 | 87 | 1013.4 |
| 20260505151543 | 43 | 173 | 0.0 | 5.0 | 0.00 | 0.32 | 0.20 | 88 | 1013.4 |
| 20260505124546 | 43 | 220 | 0.0 | 3.0 | 0.00 | 0.33 | 0.20 | 93 | 1011.6 |
| 20260505123039 | 43 | 0 | 0.0 | 0.0 | 0.00 | 0.33 | 0.20 | 93 | 1011.5 |
| 20260505121539 | 44 | 0 | 0.0 | 0.0 | 0.00 | 0.33 | 0.20 | 93 | 1011.5 |
| 20260505120046 | 43 | 0 | 0.0 | 3.0 | 0.01 | 0.33 | 0.20 | 93 | 1011.5 |
| 20260505114545 | 43 | 0 | 0.0 | 0.0 | 0.01 | 0.33 | 0.20 | 93 | 1011.4 |
| 20260505113045 | 43 | 0 | 0.0 | 1.0 | 0.03 | 0.33 | 0.20 | 93 | 1011.4 |
| 20260505111540 | 44 | 0 | 0.0 | 0.0 | 0.03 | 0.33 | 0.20 | 93 | 1011.6 |
| 20260505101541 | 44 | 0 | 0.0 | 3.0 | 0.09 | 0.30 | 0.17 | 93 | 1011.7 |
| 20260505100044 | 44 | 0 | 0.0 | 1.0 | 0.08 | 0.29 | 0.16 | 93 | 1012.0 |
| 20260505094541 | 44 | 196 | 0.0 | 4.0 | 0.07 | 0.26 | 0.13 | 93 | 1011.7 |
| 20260505093041 | 44 | 0 | 0.0 | 0.0 | 0.04 | 0.22 | 0.09 | 93 | 1012.1 |
| 20260505091559 | 44 | 259 | 0.0 | 4.0 | 0.04 | 0.21 | 0.08 | 92 | 1012.2 |
| 20260505090047 | 44 | 265 | 1.0 | 3.0 | 0.04 | 0.21 | 0.08 | 92 | 1012.3 |
| 20260505084541 | 44 | 21 | 0.0 | 4.0 | 0.03 | 0.19 | 0.06 | 92 | 1012.3 |
| 20260505083046 | 44 | 13 | 1.0 | 3.0 | 0.02 | 0.18 | 0.05 | 92 | 1012.3 |
| 20260505081557 | 44 | 295 | 0.0 | 7.0 | 0.01 | 0.17 | 0.04 | 91 | 1012.1 |
| 20260505080054 | 44 | 0 | 0.0 | 0.0 | 0.04 | 0.17 | 0.04 | 91 | 1012.4 |
| 20260505074545 | 44 | 0 | 0.0 | 0.0 | 0.04 | 0.16 | 0.03 | 90 | 1012.7 |
| 20260505073046 | 44 | 0 | 0.0 | 0.0 | 0.04 | 0.16 | 0.03 | 90 | 1012.7 |
| 20260505071552 | 44 | 0 | 0.0 | 0.0 | 0.04 | 0.16 | 0.03 | 91 | 1012.4 |
| 20260505070046 | 44 | 0 | 0.0 | 0.0 | 0.03 | 0.13 | 0.00 | 90 | 1012.4 |
| 20260505064539 | 45 | 0 | 0.0 | 0.0 | 0.02 | 0.12 | 0.12 | 91 | 1012.4 |
| 20260505063104 | 45 | 0 | 0.0 | 0.0 | 0.02 | 0.12 | 0.12 | 91 | 1012.3 |
| 20260505061610 | 45 | 0 | 0.0 | 0.0 | 0.06 | 0.12 | 0.12 | 90 | 1012.0 |
| 20260505060042 | 45 | 0 | 0.0 | 4.0 | 0.05 | 0.10 | 0.10 | 90 | 1012.2 |
| 20260505054545 | 44 | 218 | 2.0 | 6.0 | 0.05 | 0.10 | 0.10 | 89 | 1012.3 |
| 20260505053047 | 45 | 202 | 2.0 | 5.0 | 0.06 | 0.10 | 0.10 | 89 | 1012.6 |
| 20260505051604 | 45 | 0 | 0.0 | 0.0 | 0.03 | 0.06 | 0.06 | 88 | 1012.8 |
| 20260505041543 | 46 | 205 | 3.0 | 9.0 | 0.00 | 0.03 | 0.03 | 79 | 1012.2 |
| 20260505040041 | 45 | 281 | 5.0 | 11.0 | 0.00 | 0.03 | 0.03 | 77 | 1012.2 |